Prévision chaque heure sur Domdidier


  Conditions Température Point de rosée PrécipitationProbabilité d'orage Vent Pression UV Index Couverture nuageuse Visibilité
 07:00     18:25   La longueur du jour: 11:25 Aujourd'hui
01:00 3 °
Sensation de: -11.3°
0.5°   0%
16
Max: 29 km/h
1026.0 hPa   58% 24 km
02:00 3 °
Sensation de: -11.7°
0.2°   0%
16
Max: 31 km/h
1026.0 hPa   52% 24 km
03:00 3 °
Sensation de: -12.1°
-0.2°   0%
16
Max: 31 km/h
1026.0 hPa   53% 24 km
04:00 2 °
Sensation de: -11.6°
-0.5°   0%
15
Max: 30 km/h
1026.0 hPa   60% 24 km
05:00 2 °
Sensation de: -11.1°
-0.7°   0%
14
Max: 29 km/h
1026.0 hPa   68% 23 km
06:00 2 °
Sensation de: -10.5°
-1.0°   0%
13
Max: 29 km/h
1026.2 hPa   64% 23 km
07:00 2 °
Sensation de: -9.8°
-1.1°   0%
12
Max: 28 km/h
1026.8 hPa   56% 5.2 km
08:00 3 °
Sensation de: -8.6°
-1.2°   0%
11
Max: 27 km/h
1027.6 hPa   48% 23 km
09:00 4 °
Sensation de: -6.1°
-1.1°   0%
10
Max: 28 km/h
1027.8 hPa   37% 23 km
10:00 7 °
Sensation de: -3.2°
-0.9°   0%
10
Max: 28 km/h
1027.4 hPa 25% 23 km
11:00 9 °
Sensation de: 0.4°
-0.7°   0%
9
Max: 28 km/h
1027.0 hPa 13% 23 km
12:00 11 °
Sensation de: 2.0°
-0.7°   0%
9
Max: 27 km/h
1026.8 hPa 6% 22 km
13:00 12 °
Sensation de: 3.8°
-0.7°   0%
8
Max: 26 km/h
1026.4 hPa 6% 22 km
14:00 13 °
Sensation de: 4.7°
-0.7°   0%
8
Max: 26 km/h
1026.0 hPa 5% 22 km
15:00 13 °
Sensation de: 5.5°
-0.8°   0%
8
Max: 26 km/h
1026.0 hPa 4% 23 km
16:00 14 °
Sensation de: 6.6°
-0.8°   0%
7
Max: 25 km/h
1026.0 hPa 3% 23 km
17:00 13 °
Sensation de: 6.8°
-0.8°   0%
6
Max: 24 km/h
1026.0 hPa   2% 23 km
18:00 11 °
Sensation de: 5.2°
-0.8°   0%
5
Max: 22 km/h
1026.2 hPa   1% 22 km
19:00 9 °
Sensation de: 2.6°
-0.7°   0%
5
Max: 19 km/h
1026.6 hPa   45% 22 km
20:00 7 °
Sensation de: -0.1°
-0.7°   0%
5
Max: 17 km/h
1027.0 hPa   1% 22 km
21:00 5 °
Sensation de: -1.4°
-0.7°   0%
4
Max: 14 km/h
1027.0 hPa   1% 21 km
22:00 3 °
Sensation de: -2.8°
-1.0°   0%
4
Max: 12 km/h
1027.4 hPa   1% 21 km
23:00 2 °
Sensation de: -3.9°
-1.4°   0%
4
Max: 11 km/h
1027.8 hPa   1% 21 km
 06:58     18:27   La longueur du jour: 11:29 Demain
00:00 2 °
Sensation de: -3.9°
-1.8°   0%
3
Max: 10 km/h
1027.6 hPa   1% 21 km
01:00 1 °
Sensation de: -4.2°
-2.2°   0%
2
Max: 7 km/h
1027.2 hPa   1% 21 km
02:00 0 °
Sensation de: -3.9°
-2.6°   0%
1
Max: 5 km/h
1027.0 hPa   1% 21 km
03:00 -0 °
Sensation de: -4.5°
-3.0°   0%
1
Max: 5 km/h
1026.8 hPa   1% 21 km
04:00 -1 °
Sensation de: -4.9°
-3.4°   0%
1
Max: 5 km/h
1026.4 hPa   2% 21 km
05:00 -1 °
Sensation de: -5.3°
-3.7°   0%
1
Max: 5 km/h
1026.0 hPa   3% 21 km
06:00 -1 °
Sensation de: -4.9°
-4.0°   0%
0
Max: 5 km/h
1026.0 hPa   4% 21 km
07:00 -2 °
Sensation de: -5.3°
-4.3°   0%
0
Max: 5 km/h
1026.0 hPa   6% 21 km
08:00 -0 °
Sensation de: -4.1°
-3.9°   0%
0
Max: 5 km/h
1026.0 hPa   7% 21 km
09:00 3 °
Sensation de: -1.6°
-2.8°   0%
1
Max: 5 km/h
1025.6 hPa   37% 21 km
10:00 5 °
Sensation de: 0.6°
-0.2° 0.5 mm 0%
1
Max: 6 km/h
1025.0 hPa 62% 15 km
11:00 7 °
Sensation de: 3.3°
1.1° 0.3 mm 0%
1
Max: 9 km/h
1024.2 hPa 80% 20 km
12:00 9 °
Sensation de: 4.8°
1.7°   0%
2
Max: 12 km/h
1023.2 hPa 78% 20 km
13:00 9 °
Sensation de: 5.5°
2.5°   0%
2
Max: 14 km/h
1022.4 hPa 73% 17 km
14:00 10 °
Sensation de: 5.9°
2.8°   <20%
3
Max: 17 km/h
1021.6 hPa 68% 20 km
15:00 11 °
Sensation de: 6.6°
2.8°   <20%
3
Max: 19 km/h
1020.8 hPa 65% 20 km
16:00 9 °
Sensation de: 4.9°
4.1° 0.8 mm <20%
3
Max: 17 km/h
1020.2 hPa 63% 13 km
17:00 9 °
Sensation de: 4.7°
4.3°   <20%
3
Max: 17 km/h
1020.0 hPa   62% 19 km
18:00 8 °
Sensation de: 4.3°
4.1°   <20%
2
Max: 14 km/h
1020.0 hPa   61% 19 km
19:00 7 °
Sensation de: 2.3°
4.4° 0.7 mm <20%
2
Max: 9 km/h
1020.4 hPa   63% 13 km
20:00 6 °
Sensation de: 1.2°
3.8° 0.3 mm 0%
2
Max: 8 km/h
1020.8 hPa   57% 19 km
21:00 5 °
Sensation de: 1.2°
3.1°   0%
1
Max: 6 km/h
1021.0 hPa   54% 19 km
22:00 5 °
Sensation de: 0.8°
2.9° 0.2 mm 0%
1
Max: 5 km/h
1021.0 hPa   54% 16 km
23:00 4 °
Sensation de: 0.1°
2.3°   0%
1
Max: 5 km/h
1021.0 hPa   45% 18 km
 06:56     18:28   La longueur du jour: 11:32 Lundi 08 Mar
00:00 4 °
Sensation de: -0.3°
1.7°   0%
1
Max: 5 km/h
1021.0 hPa   50% 18 km